This is the latest recevied weather packets stored in our database for station/object DB5ZQ. If no packets are shown the sender has not sent any weather packets the latest 10 day(s).
| Time | Temp. | Humidity | Pressure | Rain* | Wind** | Luminosity | Snow |
|---|---|---|---|---|---|---|---|
| 1787512593 | 21.67° C | 42% | 1019.3 hPa | 0 mm | - | - | - |
| 1787512293 | 22.22° C | 42% | 1019.3 hPa | 0 mm | - | - | - |
| 1787511992 | 22.22° C | 41% | 1019.4 hPa | 0 mm | - | - | - |
| 1787511692 | 22.78° C | 41% | 1019.4 hPa | 0 mm | - | - | - |
| 1787511392 | 22.78° C | 40% | 1019.3 hPa | 0 mm | - | - | - |
| 1787511091 | 22.78° C | 40% | 1019.3 hPa | 0 mm | - | - | - |
| 1787510791 | 22.78° C | 40% | 1019.2 hPa | 0 mm | - | - | - |
| 1787510491 | 22.78° C | 40% | 1019 hPa | 0 mm | - | - | - |
| 1787510191 | 22.78° C | 39% | 1019 hPa | 0 mm | - | - | - |
| 1787509890 | 23.33° C | 39% | 1019 hPa | 0 mm | - | - | - |
| 1787509590 | 23.33° C | 38% | 1018.9 hPa | 0 mm | - | - | - |
| 1787509290 | 23.33° C | 38% | 1018.9 hPa | 0 mm | - | - | - |
| 1787508989 | 23.89° C | 38% | 1018.9 hPa | 0 mm | - | - | - |
| 1787508689 | 23.89° C | 37% | 1018.9 hPa | 0 mm | - | - | - |
| 1787508389 | 23.89° C | 37% | 1018.9 hPa | 0 mm | - | - | - |
| 1787508089 | 23.89° C | 36% | 1018.9 hPa | 0 mm | - | - | - |
| 1787507788 | 24.44° C | 36% | 1018.9 hPa | 0 mm | - | - | - |
| 1787507488 | 25° C | 35% | 1018.9 hPa | 0 mm | - | - | - |
| 1787507188 | 25° C | 35% | 1018.9 hPa | 0 mm | - | - | - |
| 1787506887 | 25° C | 34% | 1019 hPa | 0 mm | - | - | - |
| 1787506587 | 25° C | 34% | 1019 hPa | 0 mm | - | - | - |
| 1787506287 | 25° C | 34% | 1019 hPa | 0 mm | - | - | - |
| 1787505987 | 25.56° C | 33% | 1019.2 hPa | 0 mm | - | - | - |
| 1787505686 | 26.67° C | 32% | 1019.2 hPa | 0 mm | - | - | - |
| 1787505386 | 26.67° C | 31% | 1019.2 hPa | 0 mm | - | - | - |
* Rain latest hour (hover to see other rain measurements)
** Current wind speed in m/s (hover to see current wind gust speed)